CZ-6A DEB

基本信息
目录编号:
61086
目录名称:
CZ-6A DEB
国际标识:
2024-140NC
轨道中心:
EARTH
物体状态:
在轨
发射日期:
2024-08-06 UTC
轨道信息
数据来源: 国际轨道数据
星历时间: 2026-09-04T09:01:54+0800
半长轴: 6981.994km
偏心率: 0.017818
轨道倾角: 89.026°
近地点辐角: 232.870°
升交点赤经: 259.683°
平近点角: 125.614°
近地点: 479.451km
远地点: 728.263km
周期: 96.767分钟
每日圈数: 14.881051
详细信息
发射场:
TSC
轨道高度:
LEO
数据来源:
AOE Integration Group
参考系:
TEME
时间系统:
UTC
历元类型:
SGP4
2D轨道图
3D轨道图
轨道高度分析图
轨道倾角分析图
轨道综合分析图
查看轨道综合分析图